Showing default

GLOBALSTAR M043, 25874

Orbit data source: Space-Track

GLOBALSTAR M043, 25874 is a payload satellite owned by Globalstar (US) in LEO that was launched on Sun, 25 Jul 1999 UTC via a DELTA 7420-10C launch vehicle from the Air Force Eastern Test Range (AFETR). Payload-class satellites include a variety of spacecraft equipped with specific instruments for various scientific and technological missions. These include communications satellites like Starlink; space stations such as the ISS; scientific satellites like the Hubble; Earth observation satellites from companies like Planet Labs, Umbra, and HawkEye 360; GPS; miniature CubeSats for education and research; and military/defense satellites.

Loading next visibility...
Identifier
25874, 1999-041C
Orbit
LEO
Country
Flag of UnknownUnknown / GLOB
Related business
Manufacturer
SS/Loral
Mission
Non-operational Commercial Communications
Bus & Motor
LS-400, LS-400 AOCS
Mass
450 kg wet, 380 kg dry
Launch date (UTC)
1999-07-25 (27 years ago)
Launch vehicle
DELTA 7420-10C
Launch site
Air Force Eastern Test Range (AFETR)
Object type
Payload
Rocket body
Debris
Shape & HBR
Box + 2 Pan, 6.0 m
Radar Cross Section
5.587 m², Large (>1 m²)

Expand to show TLE details & history
Last TLE update: 11 hours ago

TLE from 11 hours ago
0 GLOBALSTAR M043
1 25874U 99041C   26036.11833068 -.00000041  00000-0  82112-3 0  9999
2 25874  51.9377 259.9388 0013591 353.0093 176.2572 11.25697727149108
Epoch: 2026-02-05T02:50Z
TLE epoch observation values (Epoch: 2026-02-05T02:50:23.770Z)
Latitude
8.40374°
Longitude
-104.54758°
Altitude
2,043.037 km
Speed
6.878 km/s
True Right ascension
04h 53m 18s
True Declination
8° 21' 42"
Sunlit
Object was in daylight at epoch
Visualization orbit readout
Latitude
Unknown
Longitude
Unknown
Altitude
Unknown
Speed
Unknown
Apparent Right ascension
Unknown
Apparent Declination
Unknown
Sunlit
N/A
Visualization observer readout
Local Sidereal Time
15:32:56
Azimuth
Unknown
Elevation
Unknown
Doppler factor
Unknown
Orbital elements
Apogee altitude
2,043.498 km
Perigee altitude
2,020.637 km
Semi-major axis
8,410.204 km
Eccentricity
0.00136
Inclination
51.9377°
RAAN
259.9388°
Arg. of periapsis
353.0093°
True anomaly
176.26735°
Mean anomaly
176.2572°
Eccentric anomaly
176.26228°
Mean motion
2.81406 °/min
Orbital period
127.93 mins
BSTAR
0.00082112
Loading maneuver chart data...
Computing Atmospheric mass density...
Loading historical data...
Loading historical data...
Loading historical data...
Loading historical data...
Loading historical data...
Loading historical data...
Loading historical data...
Other satellites on launch #41 in the year 1999 (1999-07-25 UTC)

Documentation

Showing up to 5 results
|